| time (UTC) | temp C | wind direction | speed KPH | gust KPH | rain 1hr cm | rain 24hr cm | rain mn cm | humidity % | barometer mb |
| 20260901211216 | 11 | 246 | 0.0 | 0.0 | 0.00 | 0.05 | 0.00 | 94 | 1024.4 |
| 20260901210716 | 10 | 247 | 0.0 | 0.0 | 0.00 | 0.05 | 0.00 | 94 | 1024.4 |
| 20260901210216 | 10 | 247 | 0.0 | 0.0 | 0.00 | 0.05 | 0.00 | 94 | 1024.4 |
| 20260901205714 | 10 | 247 | 0.0 | 0.0 | 0.00 | 0.05 | 0.00 | 93 | 1024.4 |
| 20260901205213 | 10 | 247 | 0.0 | 0.0 | 0.00 | 0.05 | 0.00 | 93 | 1024.3 |
| 20260901204710 | 10 | 247 | 0.0 | 0.0 | 0.00 | 0.05 | 0.00 | 93 | 1024.3 |
| 20260901204209 | 10 | 247 | 0.0 | 0.0 | 0.00 | 0.05 | 0.00 | 93 | 1024.3 |
| 20260901203706 | 10 | 247 | 0.0 | 0.0 | 0.00 | 0.05 | 0.00 | 93 | 1024.3 |
| 20260901203204 | 10 | 247 | 0.0 | 0.0 | 0.00 | 0.05 | 0.00 | 93 | 1024.2 |
| 20260901202658 | 10 | 247 | 0.0 | 1.6 | 0.00 | 0.05 | 0.00 | 93 | 1024.2 |
| 20260901202158 | 10 | 247 | 0.0 | 1.6 | 0.00 | 0.05 | 0.00 | 93 | 1024.2 |
| 20260901201653 | 10 | 247 | 0.0 | 1.6 | 0.00 | 0.05 | 0.00 | 93 | 1024.2 |
| 20260901201423 | 10 | 247 | 0.0 | 1.6 | 0.00 | 0.05 | 0.00 | 93 | 1024.3 |
| 20260901200653 | 10 | 247 | 0.0 | 1.6 | 0.00 | 0.05 | 0.00 | 93 | 1024.1 |
| 20260901200151 | 10 | 247 | 0.0 | 1.6 | 0.00 | 0.05 | 0.00 | 93 | 1024.0 |
| 20260901195652 | 10 | 247 | 0.0 | 3.2 | 0.00 | 0.05 | 0.00 | 93 | 1024.0 |
| 20260901195149 | 10 | 247 | 0.0 | 3.2 | 0.00 | 0.05 | 0.00 | 93 | 1024.1 |
| 20260901194647 | 10 | 247 | 0.0 | 3.2 | 0.00 | 0.05 | 0.00 | 93 | 1024.0 |
| 20260901194148 | 10 | 247 | 0.0 | 3.2 | 0.00 | 0.05 | 0.00 | 93 | 1024.1 |
| 20260901193645 | 10 | 247 | 0.0 | 1.6 | 0.00 | 0.05 | 0.00 | 93 | 1024.0 |
| 20260901193146 | 10 | 247 | 0.0 | 1.6 | 0.00 | 0.05 | 0.00 | 93 | 1024.0 |
| 20260901193132 | 10 | 247 | 0.0 | 0.0 | 0.00 | 0.05 | 0.00 | 93 | 1023.9 |
| 20260901192411 | 10 | 247 | 0.0 | 0.0 | 0.00 | 0.05 | 0.00 | 93 | 1023.9 |
| 20260901191645 | 11 | 247 | 0.0 | 0.0 | 0.00 | 0.05 | 0.00 | 93 | 1023.8 |
| 20260901191146 | 11 | 247 | 0.0 | 0.0 | 0.00 | 0.05 | 0.00 | 93 | 1023.8 |
| 20260901191134 | 11 | 247 | 0.0 | 0.0 | 0.00 | 0.05 | 0.00 | 93 | 1023.7 |
| 20260901190141 | 11 | 247 | 0.0 | 3.2 | 0.00 | 0.05 | 0.00 | 93 | 1023.6 |
| 20260901185640 | 11 | 247 | 0.0 | 3.2 | 0.00 | 0.05 | 0.00 | 93 | 1023.7 |
| 20260901185142 | 11 | 247 | 0.0 | 3.2 | 0.00 | 0.05 | 0.00 | 93 | 1023.6 |
| 20260901184642 | 11 | 247 | 0.0 | 3.2 | 0.00 | 0.05 | 0.00 | 93 | 1023.7 |
| 20260901184141 | 11 | 247 | 0.0 | 3.2 | 0.00 | 0.05 | 0.00 | 93 | 1023.7 |
| 20260901183835 | 11 | 247 | 0.0 | 3.2 | 0.00 | 0.05 | 0.00 | 93 | 1023.7 |
| 20260901183106 | 11 | 247 | 0.0 | 3.2 | 0.00 | 0.05 | 0.00 | 93 | 1023.6 |
| 20260901182605 | 10 | 247 | 0.0 | 8.0 | 0.00 | 0.05 | 0.00 | 93 | 1023.7 |
| 20260901182106 | 10 | 247 | 0.0 | 8.0 | 0.00 | 0.05 | 0.00 | 93 | 1023.6 |
| 20260901181600 | 10 | 247 | 1.6 | 8.0 | 0.00 | 0.05 | 0.00 | 93 | 1023.6 |
| 20260901181059 | 10 | 247 | 1.6 | 8.0 | 0.00 | 0.05 | 0.00 | 93 | 1023.6 |
| 20260901180600 | 10 | 241 | 1.6 | 8.0 | 0.00 | 0.05 | 0.00 | 93 | 1023.5 |
| 20260901180109 | 10 | 175 | 0.0 | 6.4 | 0.00 | 0.05 | 0.00 | 92 | 1023.5 |
| 20260901175833 | 10 | 153 | 0.0 | 1.6 | 0.00 | 0.05 | 0.00 | 92 | 1023.5 |
| 20260901175057 | 10 | 153 | 0.0 | 1.6 | 0.00 | 0.05 | 0.00 | 92 | 1023.5 |
| 20260901174557 | 10 | 153 | 0.0 | 1.6 | 0.00 | 0.05 | 0.00 | 92 | 1023.5 |
| 20260901174058 | 10 | 153 | 0.0 | 1.6 | 0.00 | 0.05 | 0.00 | 92 | 1023.6 |
| 20260901173821 | 10 | 153 | 0.0 | 1.6 | 0.00 | 0.05 | 0.00 | 92 | 1023.5 |
| 20260901173053 | 10 | 153 | 0.0 | 1.6 | 0.00 | 0.05 | 0.00 | 92 | 1023.5 |
| 20260901172808 | 10 | 153 | 0.0 | 1.6 | 0.00 | 0.05 | 0.00 | 92 | 1023.6 |
| 20260901172053 | 10 | 153 | 0.0 | 0.0 | 0.00 | 0.05 | 0.00 | 92 | 1023.6 |
| 20260901171538 | 10 | 153 | 0.0 | 0.0 | 0.00 | 0.05 | 0.00 | 92 | 1023.7 |
| 20260901171037 | 10 | 153 | 0.0 | 0.0 | 0.00 | 0.05 | 0.00 | 92 | 1023.8 |
| 20260901170526 | 10 | 153 | 0.0 | 0.0 | 0.00 | 0.05 | 0.00 | 92 | 1023.8 |
| 20260901170025 | 10 | 153 | 0.0 | 0.0 | 0.00 | 0.05 | 0.00 | 92 | 1023.9 |
| 20260901165743 | 10 | 153 | 0.0 | 0.0 | 0.00 | 0.05 | 0.00 | 92 | 1023.9 |
| 20260901165023 | 10 | 153 | 0.0 | 0.0 | 0.00 | 0.05 | 0.00 | 92 | 1024.0 |
| 20260901164521 | 10 | 153 | 0.0 | 0.0 | 0.00 | 0.05 | 0.00 | 92 | 1024.1 |
| 20260901164226 | 10 | 153 | 0.0 | 0.0 | 0.00 | 0.05 | 0.00 | 91 | 1024.2 |
| 20260901164112 | 10 | 153 | 0.0 | 0.0 | 0.00 | 0.05 | 0.00 | 92 | 1024.2 |
| 20260901163016 | 10 | 153 | 0.0 | 1.6 | 0.00 | 0.05 | 0.00 | 91 | 1024.3 |
| 20260901162515 | 10 | 153 | 0.0 | 1.6 | 0.00 | 0.05 | 0.00 | 91 | 1024.3 |
| 20260901162012 | 10 | 153 | 0.0 | 0.0 | 0.00 | 0.05 | 0.00 | 91 | 1024.4 |
| 20260901161510 | 10 | 153 | 0.0 | 1.6 | 0.00 | 0.05 | 0.00 | 91 | 1024.4 |
| 20260901161008 | 10 | 153 | 0.0 | 1.6 | 0.00 | 0.05 | 0.00 | 91 | 1024.4 |
| 20260901160507 | 10 | 153 | 0.0 | 1.6 | 0.00 | 0.05 | 0.00 | 91 | 1024.5 |
| 20260901160228 | 10 | 153 | 0.0 | 1.6 | 0.00 | 0.05 | 0.00 | 91 | 1024.6 |
| 20260901155502 | 10 | 153 | 0.0 | 1.6 | 0.00 | 0.05 | 0.00 | 91 | 1024.5 |
| 20260901155000 | 10 | 153 | 0.0 | 1.6 | 0.00 | 0.05 | 0.00 | 91 | 1024.6 |
| 20260901154457 | 10 | 153 | 0.0 | 0.0 | 0.00 | 0.05 | 0.00 | 91 | 1024.5 |
| 20260901154220 | 10 | 153 | 0.0 | 1.6 | 0.00 | 0.05 | 0.00 | 91 | 1024.5 |
| 20260901153430 | 10 | 153 | 0.0 | 1.6 | 0.00 | 0.05 | 0.00 | 91 | 1024.5 |
| 20260901153140 | 10 | 153 | 0.0 | 1.6 | 0.00 | 0.05 | 0.00 | 91 | 1024.6 |
| 20260901152429 | 11 | 153 | 0.0 | 1.6 | 0.00 | 0.05 | 0.00 | 91 | 1024.5 |
| 20260901151913 | 11 | 153 | 0.0 | 1.6 | 0.00 | 0.05 | 0.00 | 91 | 1024.5 |
| 20260901151412 | 11 | 153 | 0.0 | 1.6 | 0.00 | 0.05 | 0.00 | 91 | 1024.7 |
| 20260901150912 | 11 | 153 | 0.0 | 1.6 | 0.00 | 0.05 | 0.00 | 91 | 1024.6 |
| 20260901150637 | 11 | 153 | 0.0 | 0.0 | 0.00 | 0.05 | 0.00 | 91 | 1024.7 |
| 20260901145908 | 11 | 153 | 0.0 | 0.0 | 0.00 | 0.05 | 0.00 | 91 | 1024.7 |
| 20260901145408 | 11 | 153 | 0.0 | 0.0 | 0.00 | 0.05 | 0.00 | 91 | 1024.7 |
| 20260901144902 | 11 | 153 | 0.0 | 0.0 | 0.00 | 0.05 | 0.00 | 91 | 1024.8 |
| 20260901144400 | 11 | 153 | 0.0 | 0.0 | 0.00 | 0.05 | 0.00 | 91 | 1024.8 |
| 20260901144120 | 11 | 153 | 0.0 | 1.6 | 0.00 | 0.05 | 0.00 | 91 | 1024.9 |
| 20260901143400 | 11 | 153 | 0.0 | 0.0 | 0.00 | 0.05 | 0.00 | 91 | 1024.9 |
| 20260901142836 | 11 | 153 | 0.0 | 1.6 | 0.03 | 0.05 | 0.00 | 90 | 1025.0 |
| 20260901142333 | 11 | 153 | 0.0 | 0.0 | 0.03 | 0.05 | 0.00 | 90 | 1025.1 |
| 20260901141831 | 11 | 153 | 0.0 | 0.0 | 0.03 | 0.05 | 0.00 | 90 | 1025.1 |
| 20260901141330 | 11 | 153 | 0.0 | 0.0 | 0.03 | 0.05 | 0.00 | 90 | 1025.1 |
| 20260901141052 | 11 | 153 | 0.0 | 1.6 | 0.03 | 0.05 | 0.00 | 90 | 1025.2 |
| 20260901140326 | 11 | 153 | 0.0 | 1.6 | 0.03 | 0.05 | 0.00 | 90 | 1025.2 |
| 20260901135824 | 11 | 153 | 0.0 | 0.0 | 0.03 | 0.05 | 0.05 | 90 | 1025.3 |
| 20260901135548 | 11 | 153 | 0.0 | 0.0 | 0.03 | 0.05 | 0.05 | 90 | 1025.3 |
| 20260901134822 | 11 | 153 | 0.0 | 0.0 | 0.03 | 0.05 | 0.05 | 90 | 1025.4 |
| 20260901134318 | 11 | 153 | 0.0 | 0.0 | 0.03 | 0.05 | 0.05 | 90 | 1025.4 |
| 20260901133818 | 11 | 153 | 0.0 | 0.0 | 0.03 | 0.05 | 0.05 | 90 | 1025.5 |
| 20260901133538 | 11 | 153 | 0.0 | 0.0 | 0.00 | 0.03 | 0.03 | 90 | 1025.5 |
| 20260901132807 | 11 | 153 | 0.0 | 0.0 | 0.00 | 0.03 | 0.03 | 90 | 1025.5 |
| 20260901132307 | 12 | 153 | 0.0 | 1.6 | 0.00 | 0.03 | 0.03 | 90 | 1025.6 |
| 20260901131811 | 12 | 153 | 0.0 | 1.6 | 0.00 | 0.03 | 0.03 | 90 | 1025.6 |
| 20260901131302 | 12 | 153 | 0.0 | 0.0 | 0.00 | 0.03 | 0.03 | 89 | 1025.6 |
| 20260901130800 | 12 | 153 | 0.0 | 0.0 | 0.00 | 0.03 | 0.03 | 89 | 1025.7 |
| 20260901130258 | 12 | 153 | 0.0 | 0.0 | 0.00 | 0.03 | 0.03 | 89 | 1025.7 |
| 20260901125756 | 12 | 153 | 0.0 | 1.6 | 0.00 | 0.03 | 0.03 | 89 | 1025.6 |
| 20260901125253 | 12 | 153 | 0.0 | 1.6 | 0.00 | 0.03 | 0.03 | 89 | 1025.7 |
| 20260901124752 | 12 | 153 | 0.0 | 1.6 | 0.00 | 0.03 | 0.03 | 89 | 1025.7 |
| 20260901124250 | 12 | 153 | 0.0 | 1.6 | 0.00 | 0.03 | 0.03 | 89 | 1025.7 |
| 20260901123747 | 12 | 153 | 0.0 | 0.0 | 0.00 | 0.03 | 0.03 | 89 | 1025.7 |
| 20260901123247 | 12 | 153 | 0.0 | 0.0 | 0.00 | 0.03 | 0.03 | 88 | 1025.6 |
| 20260901122744 | 12 | 153 | 0.0 | 0.0 | 0.00 | 0.03 | 0.03 | 88 | 1025.6 |
| 20260901122242 | 12 | 153 | 0.0 | 0.0 | 0.00 | 0.03 | 0.03 | 88 | 1025.6 |
| 20260901121735 | 12 | 153 | 0.0 | 0.0 | 0.00 | 0.03 | 0.03 | 88 | 1025.7 |
| 20260901121718 | 12 | 153 | 0.0 | 0.0 | 0.00 | 0.03 | 0.03 | 88 | 1025.7 |
| 20260901120731 | 12 | 153 | 0.0 | 0.0 | 0.00 | 0.03 | 0.03 | 88 | 1025.7 |
| 20260901120234 | 12 | 153 | 0.0 | 0.0 | 0.00 | 0.03 | 0.03 | 88 | 1025.8 |
| 20260901115709 | 12 | 153 | 0.0 | 0.0 | 0.00 | 0.03 | 0.03 | 88 | 1025.8 |
| 20260901115209 | 12 | 153 | 0.0 | 1.6 | 0.00 | 0.03 | 0.03 | 88 | 1025.7 |
| 20260901114658 | 13 | 153 | 0.0 | 1.6 | 0.00 | 0.03 | 0.03 | 88 | 1025.7 |
| 20260901114155 | 13 | 153 | 0.0 | 1.6 | 0.00 | 0.03 | 0.03 | 88 | 1025.7 |
| 20260901113654 | 13 | 153 | 0.0 | 1.6 | 0.00 | 0.03 | 0.03 | 88 | 1025.8 |
| 20260901113151 | 13 | 153 | 0.0 | 1.6 | 0.00 | 0.03 | 0.03 | 88 | 1025.8 |
| 20260901112704 | 13 | 153 | 0.0 | 1.6 | 0.00 | 0.03 | 0.03 | 87 | 1025.8 |
| 20260901112147 | 13 | 153 | 0.0 | 0.0 | 0.00 | 0.03 | 0.03 | 87 | 1025.9 |
| 20260901111646 | 13 | 153 | 0.0 | 3.2 | 0.00 | 0.03 | 0.03 | 87 | 1025.9 |
| 20260901111144 | 13 | 153 | 0.0 | 3.2 | 0.00 | 0.03 | 0.03 | 87 | 1025.9 |
| 20260901110642 | 13 | 153 | 0.0 | 3.2 | 0.00 | 0.03 | 0.03 | 86 | 1025.9 |
| 20260901110418 | 13 | 153 | 1.6 | 3.2 | 0.00 | 0.03 | 0.03 | 86 | 1025.8 |
| 20260901105634 | 13 | 64 | 0.0 | 3.2 | 0.00 | 0.03 | 0.03 | 86 | 1025.8 |
| 20260901105132 | 13 | 65 | 0.0 | 0.0 | 0.00 | 0.03 | 0.03 | 86 | 1025.8 |
| 20260901104629 | 13 | 65 | 0.0 | 0.0 | 0.00 | 0.03 | 0.03 | 86 | 1025.8 |
| 20260901104132 | 13 | 65 | 0.0 | 0.0 | 0.00 | 0.03 | 0.03 | 85 | 1025.8 |
| 20260901103825 | 14 | 65 | 0.0 | 0.0 | 0.00 | 0.03 | 0.03 | 85 | 1025.9 |
| 20260901103035 | 14 | 65 | 0.0 | 1.6 | 0.00 | 0.03 | 0.03 | 85 | 1025.9 |
| 20260901102517 | 14 | 65 | 0.0 | 1.6 | 0.00 | 0.03 | 0.03 | 84 | 1025.9 |
| 20260901102018 | 14 | 65 | 0.0 | 1.6 | 0.00 | 0.03 | 0.03 | 84 | 1025.9 |
| 20260901101502 | 14 | 65 | 0.0 | 0.0 | 0.00 | 0.03 | 0.03 | 84 | 1025.9 |
| 20260901100922 | 14 | 65 | 0.0 | 0.0 | 0.00 | 0.03 | 0.03 | 83 | 1026.0 |
| 20260901100618 | 14 | 65 | 0.0 | 0.0 | 0.00 | 0.03 | 0.03 | 83 | 1026.0 |
| 20260901095830 | 15 | 65 | 0.0 | 0.0 | 0.00 | 0.03 | 0.03 | 83 | 1026.0 |
| 20260901095301 | 15 | 65 | 0.0 | 0.0 | 0.00 | 0.03 | 0.03 | 82 | 1026.0 |
| 20260901094744 | 15 | 65 | 0.0 | 0.0 | 0.00 | 0.03 | 0.03 | 82 | 1025.9 |
| 20260901094233 | 15 | 65 | 0.0 | 0.0 | 0.00 | 0.03 | 0.03 | 82 | 1025.9 |
| 20260901093731 | 15 | 65 | 0.0 | 0.0 | 0.00 | 0.03 | 0.03 | 81 | 1025.9 |
| 20260901093229 | 15 | 65 | 0.0 | 0.0 | 0.00 | 0.03 | 0.03 | 81 | 1025.9 |
| 20260901092727 | 15 | 65 | 0.0 | 0.0 | 0.00 | 0.03 | 0.03 | 80 | 1026.0 |
| 20260901092225 | 15 | 65 | 0.0 | 0.0 | 0.00 | 0.03 | 0.03 | 80 | 1025.9 |
| 20260901091725 | 16 | 65 | 0.0 | 1.6 | 0.00 | 0.03 | 0.03 | 80 | 1025.8 |
| 20260901091225 | 16 | 65 | 0.0 | 1.6 | 0.00 | 0.03 | 0.03 | 79 | 1025.8 |
| 20260901090719 | 16 | 65 | 0.0 | 1.6 | 0.00 | 0.03 | 0.03 | 78 | 1025.6 |
| 20260901090216 | 16 | 65 | 0.0 | 1.6 | 0.00 | 0.03 | 0.03 | 78 | 1025.6 |
| 20260901085943 | 16 | 65 | 0.0 | 1.6 | 0.00 | 0.03 | 0.03 | 77 | 1025.6 |
| 20260901085214 | 16 | 64 | 0.0 | 0.0 | 0.00 | 0.03 | 0.03 | 77 | 1025.5 |
| 20260901084713 | 17 | 65 | 0.0 | 0.0 | 0.00 | 0.03 | 0.03 | 76 | 1025.5 |
| 20260901084228 | 17 | 65 | 0.0 | 1.6 | 0.00 | 0.03 | 0.03 | 76 | 1025.4 |
| 20260901083659 | 17 | 65 | 0.0 | 1.6 | 0.00 | 0.03 | 0.03 | 75 | 1025.4 |
| 20260901083157 | 17 | 64 | 0.0 | 1.6 | 0.00 | 0.03 | 0.03 | 75 | 1025.4 |
| 20260901082655 | 17 | 65 | 0.0 | 1.6 | 0.00 | 0.03 | 0.03 | 74 | 1025.2 |
| 20260901082153 | 17 | 65 | 0.0 | 0.0 | 0.00 | 0.03 | 0.03 | 74 | 1025.2 |
| 20260901081646 | 17 | 65 | 0.0 | 0.0 | 0.00 | 0.03 | 0.03 | 73 | 1025.2 |
| 20260901081143 | 17 | 65 | 0.0 | 0.0 | 0.00 | 0.03 | 0.03 | 73 | 1025.1 |
| 20260901080654 | 18 | 65 | 0.0 | 1.6 | 0.00 | 0.03 | 0.03 | 72 | 1025.0 |
| 20260901080141 | 18 | 64 | 0.0 | 3.2 | 0.00 | 0.03 | 0.03 | 72 | 1025.0 |
| 20260901075644 | 18 | 64 | 0.0 | 3.2 | 0.00 | 0.03 | 0.03 | 72 | 1025.0 |
| 20260901075359 | 18 | 65 | 0.0 | 3.2 | 0.00 | 0.03 | 0.03 | 72 | 1024.9 |
| 20260901074636 | 18 | 65 | 0.0 | 3.2 | 0.00 | 0.03 | 0.03 | 71 | 1024.9 |
| 20260901074131 | 18 | 64 | 0.0 | 3.2 | 0.00 | 0.03 | 0.03 | 71 | 1024.8 |
| 20260901073644 | 18 | 65 | 0.0 | 3.2 | 0.00 | 0.03 | 0.03 | 71 | 1024.8 |
| 20260901073130 | 18 | 65 | 0.0 | 4.8 | 0.00 | 0.03 | 0.03 | 71 | 1024.9 |
| 20260901072630 | 18 | 64 | 1.6 | 4.8 | 0.00 | 0.03 | 0.03 | 70 | 1024.9 |
| 20260901072102 | 18 | 65 | 1.6 | 4.8 | 0.00 | 0.03 | 0.03 | 70 | 1024.8 |
| 20260901071535 | 19 | 64 | 1.6 | 4.8 | 0.00 | 0.03 | 0.03 | 70 | 1024.8 |
| 20260901071035 | 19 | 65 | 1.6 | 6.4 | 0.00 | 0.03 | 0.03 | 70 | 1024.8 |
| 20260901070534 | 19 | 64 | 1.6 | 6.4 | 0.00 | 0.03 | 0.03 | 70 | 1024.8 |
| 20260901070007 | 19 | 66 | 1.6 | 6.4 | 0.00 | 0.03 | 0.03 | 70 | 1024.7 |
| 20260901065454 | 19 | 67 | 1.6 | 6.4 | 0.00 | 0.03 | 0.03 | 71 | 1024.7 |
| 20260901064955 | 19 | 58 | 1.6 | 3.2 | 0.00 | 0.03 | 0.03 | 71 | 1024.7 |
| 20260901064455 | 19 | 58 | 0.0 | 3.2 | 0.00 | 0.03 | 0.03 | 71 | 1024.7 |
| 20260901063956 | 19 | 58 | 1.6 | 4.8 | 0.00 | 0.03 | 0.03 | 70 | 1024.7 |
| 20260901063452 | 19 | 58 | 1.6 | 6.4 | 0.00 | 0.03 | 0.03 | 70 | 1024.7 |
| 20260901062949 | 20 | 58 | 1.6 | 6.4 | 0.00 | 0.03 | 0.03 | 69 | 1024.7 |
| 20260901062707 | 20 | 55 | 1.6 | 6.4 | 0.00 | 0.03 | 0.03 | 69 | 1024.6 |
| 20260901061949 | 20 | 58 | 1.6 | 6.4 | 0.00 | 0.03 | 0.03 | 68 | 1024.7 |
| 20260901061447 | 20 | 0 | 1.6 | 6.4 | 0.00 | 0.03 | 0.03 | 68 | 1024.7 |
| 20260901060945 | 20 | 47 | 1.6 | 6.4 | 0.00 | 0.03 | 0.03 | 67 | 1024.7 |
| 20260901060444 | 20 | 20 | 1.6 | 6.4 | 0.00 | 0.03 | 0.03 | 68 | 1024.7 |
| 20260901055937 | 20 | 68 | 1.6 | 6.4 | 0.00 | 0.03 | 0.03 | 68 | 1024.8 |
| 20260901055436 | 20 | 69 | 1.6 | 4.8 | 0.00 | 0.03 | 0.03 | 67 | 1024.8 |
| 20260901054933 | 20 | 69 | 1.6 | 4.8 | 0.00 | 0.03 | 0.03 | 67 | 1024.8 |
| 20260901054436 | 20 | 68 | 1.6 | 4.8 | 0.00 | 0.03 | 0.03 | 68 | 1024.8 |
| 20260901053916 | 20 | 69 | 1.6 | 6.4 | 0.00 | 0.03 | 0.03 | 68 | 1024.8 |
| 20260901053636 | 20 | 21 | 1.6 | 6.4 | 0.00 | 0.03 | 0.03 | 68 | 1024.8 |
| 20260901052849 | 20 | 51 | 1.6 | 6.4 | 0.00 | 0.03 | 0.03 | 67 | 1024.8 |
| 20260901052351 | 21 | 39 | 1.6 | 6.4 | 0.00 | 0.03 | 0.03 | 67 | 1024.8 |
| 20260901051836 | 21 | 52 | 1.6 | 4.8 | 0.00 | 0.03 | 0.03 | 68 | 1024.9 |
| 20260901051332 | 21 | 58 | 1.6 | 4.8 | 0.00 | 0.03 | 0.03 | 68 | 1024.9 |
| 20260901050831 | 21 | 58 | 1.6 | 4.8 | 0.00 | 0.03 | 0.03 | 68 | 1025.0 |
| 20260901050331 | 21 | 58 | 1.6 | 4.8 | 0.00 | 0.03 | 0.03 | 69 | 1025.0 |
| 20260901045831 | 21 | 47 | 1.6 | 4.8 | 0.00 | 0.03 | 0.03 | 69 | 1025.0 |
| 20260901045329 | 21 | 47 | 1.6 | 4.8 | 0.00 | 0.03 | 0.03 | 69 | 1025.1 |
| 20260901044829 | 21 | 55 | 1.6 | 4.8 | 0.00 | 0.03 | 0.03 | 69 | 1025.1 |
| 20260901044332 | 21 | 55 | 1.6 | 4.8 | 0.00 | 0.03 | 0.03 | 69 | 1025.2 |
| 20260901043823 | 21 | 57 | 1.6 | 4.8 | 0.00 | 0.03 | 0.03 | 68 | 1025.3 |
| 20260901043323 | 21 | 29 | 1.6 | 4.8 | 0.00 | 0.03 | 0.03 | 68 | 1025.3 |
| 20260901042819 | 21 | 118 | 1.6 | 11.3 | 0.00 | 0.03 | 0.03 | 68 | 1025.4 |
| 20260901042322 | 21 | 125 | 1.6 | 11.3 | 0.00 | 0.03 | 0.03 | 67 | 1025.4 |
| 20260901041816 | 21 | 52 | 3.2 | 11.3 | 0.00 | 0.03 | 0.03 | 67 | 1025.5 |
| 20260901041317 | 21 | 120 | 3.2 | 12.9 | 0.00 | 0.03 | 0.03 | 67 | 1025.6 |
| 20260901040817 | 21 | 135 | 3.2 | 12.9 | 0.00 | 0.03 | 0.03 | 67 | 1025.6 |
| 20260901040311 | 21 | 93 | 1.6 | 6.4 | 0.00 | 0.03 | 0.03 | 67 | 1025.7 |
| 20260901035821 | 21 | 122 | 1.6 | 14.5 | 0.00 | 0.03 | 0.03 | 67 | 1025.7 |
| 20260901035309 | 21 | 81 | 1.6 | 14.5 | 0.00 | 0.03 | 0.03 | 67 | 1025.7 |
| 20260901034806 | 21 | 118 | 1.6 | 8.0 | 0.00 | 0.03 | 0.03 | 67 | 1025.7 |
| 20260901034307 | 21 | 118 | 1.6 | 8.0 | 0.00 | 0.03 | 0.03 | 67 | 1025.8 |
| 20260901033805 | 22 | 44 | 1.6 | 6.4 | 0.00 | 0.03 | 0.03 | 66 | 1025.8 |
| 20260901033304 | 22 | 22 | 3.2 | 11.3 | 0.00 | 0.03 | 0.03 | 66 | 1025.8 |
| 20260901032804 | 22 | 120 | 1.6 | 11.3 | 0.00 | 0.03 | 0.03 | 65 | 1025.9 |
| 20260901032306 | 22 | 121 | 1.6 | 12.9 | 0.00 | 0.03 | 0.03 | 65 | 1026.0 |
| 20260901031805 | 22 | 55 | 1.6 | 12.9 | 0.00 | 0.03 | 0.03 | 65 | 1026.0 |
| 20260901031236 | 22 | 54 | 3.2 | 12.9 | 0.00 | 0.03 | 0.03 | 64 | 1026.0 |
| 20260901030736 | 23 | 124 | 3.2 | 12.9 | 0.00 | 0.03 | 0.03 | 63 | 1026.1 |
| 20260901030238 | 23 | 120 | 3.2 | 12.9 | 0.00 | 0.03 | 0.03 | 65 | 1026.2 |
| 20260901025734 | 22 | 27 | 3.2 | 12.9 | 0.00 | 0.03 | 0.03 | 64 | 1026.2 |
| 20260901025232 | 22 | 125 | 1.6 | 8.0 | 0.00 | 0.03 | 0.03 | 66 | 1026.4 |
| 20260901024731 | 22 | 129 | 1.6 | 8.0 | 0.00 | 0.03 | 0.03 | 65 | 1026.5 |
| 20260901024229 | 22 | 129 | 1.6 | 8.0 | 0.00 | 0.03 | 0.03 | 66 | 1026.6 |
| 20260901023728 | 22 | 56 | 1.6 | 6.4 | 0.00 | 0.03 | 0.03 | 67 | 1026.7 |
| 20260901023449 | 22 | 56 | 1.6 | 6.4 | 0.00 | 0.03 | 0.03 | 67 | 1026.8 |
| 20260901022726 | 21 | 56 | 1.6 | 8.0 | 0.00 | 0.03 | 0.03 | 67 | 1026.9 |
| 20260901022703 | 21 | 47 | 1.6 | 8.0 | 0.00 | 0.03 | 0.03 | 68 | 1027.0 |
| 20260901021724 | 21 | 119 | 1.6 | 4.8 | 0.00 | 0.03 | 0.03 | 67 | 1027.0 |
| 20260901021225 | 21 | 119 | 1.6 | 6.4 | 0.00 | 0.03 | 0.03 | 68 | 1027.2 |
| 20260901020722 | 21 | 120 | 1.6 | 6.4 | 0.00 | 0.03 | 0.03 | 68 | 1027.3 |
| 20260901020225 | 21 | 120 | 1.6 | 6.4 | 0.00 | 0.03 | 0.03 | 68 | 1027.4 |
| 20260901015700 | 21 | 120 | 1.6 | 6.4 | 0.00 | 0.03 | 0.03 | 69 | 1027.4 |
| 20260901015158 | 21 | 175 | 1.6 | 8.0 | 0.00 | 0.03 | 0.03 | 71 | 1027.4 |
| 20260901014659 | 21 | 175 | 1.6 | 8.0 | 0.00 | 0.03 | 0.03 | 71 | 1027.5 |
| 20260901014155 | 21 | 141 | 1.6 | 8.0 | 0.00 | 0.03 | 0.03 | 71 | 1027.7 |
| 20260901013652 | 21 | 126 | 1.6 | 8.0 | 0.00 | 0.03 | 0.03 | 71 | 1027.8 |
| 20260901013151 | 21 | 118 | 3.2 | 8.0 | 0.00 | 0.03 | 0.03 | 70 | 1027.9 |
| 20260901012649 | 22 | 118 | 3.2 | 8.0 | 0.00 | 0.03 | 0.03 | 69 | 1028.0 |
| 20260901012408 | 22 | 119 | 3.2 | 8.0 | 0.00 | 0.03 | 0.03 | 70 | 1028.1 |
| 20260901011912 | 22 | 117 | 1.6 | 6.4 | 0.00 | 0.03 | 0.03 | 70 | 1028.2 |
| 20260901011149 | 22 | 199 | 1.6 | 8.0 | 0.00 | 0.03 | 0.03 | 70 | 1028.3 |
| 20260901010640 | 22 | 120 | 1.6 | 8.0 | 0.00 | 0.03 | 0.03 | 71 | 1028.4 |
| 20260901010138 | 22 | 122 | 1.6 | 11.3 | 0.00 | 0.03 | 0.03 | 73 | 1028.4 |
| 20260901005636 | 21 | 48 | 1.6 | 11.3 | 0.00 | 0.03 | 0.03 | 74 | 1028.5 |
| 20260901005137 | 21 | 99 | 1.6 | 9.7 | 0.00 | 0.03 | 0.03 | 74 | 1028.6 |
| 20260901004636 | 21 | 99 | 3.2 | 9.7 | 0.00 | 0.03 | 0.03 | 77 | 1028.7 |
| 20260901004354 | 21 | 212 | 4.8 | 8.0 | 0.00 | 0.03 | 0.03 | 78 | 1028.8 |
| 20260901003637 | 21 | 233 | 4.8 | 8.0 | 0.00 | 0.03 | 0.03 | 79 | 1028.8 |
| 20260901003113 | 20 | 135 | 4.8 | 8.0 | 0.00 | 0.03 | 0.03 | 81 | 1029.0 |
| 20260901002612 | 20 | 199 | 4.8 | 8.0 | 0.00 | 0.03 | 0.03 | 82 | 1029.1 |
| 20260901002109 | 20 | 122 | 3.2 | 9.7 | 0.00 | 0.03 | 0.03 | 83 | 1029.2 |
| 20260901001607 | 20 | 196 | 4.8 | 12.9 | 0.00 | 0.03 | 0.03 | 86 | 1029.4 |
| 20260901001105 | 19 | 202 | 4.8 | 12.9 | 0.00 | 0.03 | 0.03 | 87 | 1029.5 |
| 20260901000837 | 19 | 239 | 3.2 | 11.3 | 0.00 | 0.03 | 0.03 | 89 | 1029.6 |
| 20260901000109 | 18 | 165 | 3.2 | 8.0 | 0.00 | 0.03 | 0.03 | 90 | 1029.6 |
| 20260831235602 | 18 | 224 | 3.2 | 9.7 | 0.00 | 0.03 | 0.03 | 90 | 1029.6 |
| 20260831235059 | 18 | 154 | 3.2 | 9.7 | 0.00 | 0.03 | 0.03 | 91 | 1029.8 |
| 20260831234557 | 18 | 185 | 1.6 | 8.0 | 0.00 | 0.03 | 0.03 | 92 | 1029.7 |
| 20260831234326 | 17 | 201 | 1.6 | 6.4 | 0.00 | 0.03 | 0.03 | 93 | 1029.7 |
| 20260831233552 | 17 | 202 | 3.2 | 6.4 | 0.00 | 0.03 | 0.03 | 92 | 1029.7 |
| 20260831233050 | 17 | 199 | 3.2 | 6.4 | 0.00 | 0.03 | 0.03 | 93 | 1029.7 |
| 20260831232553 | 17 | 180 | 3.2 | 8.0 | 0.00 | 0.03 | 0.03 | 93 | 1029.7 |
| 20260831232041 | 17 | 180 | 3.2 | 8.0 | 0.00 | 0.03 | 0.03 | 93 | 1029.7 |
| 20260831231801 | 17 | 199 | 3.2 | 6.4 | 0.03 | 0.03 | 0.03 | 93 | 1029.6 |
| 20260831231038 | 17 | 203 | 3.2 | 11.3 | 0.03 | 0.03 | 0.03 | 93 | 1029.6 |
| 20260831230536 | 17 | 223 | 4.8 | 11.3 | 0.03 | 0.03 | 0.03 | 93 | 1029.6 |
| 20260831230051 | 16 | 185 | 4.8 | 11.3 | 0.03 | 0.03 | 0.03 | 93 | 1029.7 |
| 20260831225753 | 16 | 201 | 3.2 | 9.7 | 0.03 | 0.03 | 0.03 | 93 | 1029.7 |
| 20260831225030 | 16 | 205 | 3.2 | 8.0 | 0.03 | 0.03 | 0.03 | 93 | 1029.7 |
| 20260831224531 | 16 | 170 | 3.2 | 11.3 | 0.03 | 0.03 | 0.03 | 93 | 1029.7 |
| 20260831224033 | 16 | 185 | 3.2 | 11.3 | 0.03 | 0.03 | 0.03 | 93 | 1029.7 |
| 20260831223528 | 16 | 185 | 1.6 | 6.4 | 0.03 | 0.03 | 0.03 | 93 | 1029.7 |
| 20260831223258 | 16 | 175 | 0.0 | 4.8 | 0.03 | 0.03 | 0.03 | 93 | 1029.8 |
| 20260831222529 | 16 | 175 | 1.6 | 6.4 | 0.03 | 0.03 | 0.03 | 93 | 1029.8 |
| 20260831222026 | 16 | 175 | 3.2 | 6.4 | 0.03 | 0.03 | 0.03 | 93 | 1029.8 |
| 20260831221529 | 15 | 180 | 3.2 | 6.4 | 0.00 | 0.00 | 0.00 | 93 | 1029.7 |
| 20260831221001 | 15 | 180 | 3.2 | 6.4 | 0.00 | 0.00 | 0.00 | 92 | 1029.7 |
| 20260831220435 | 15 | 161 | 1.6 | 4.8 | 0.00 | 0.00 | 0.00 | 92 | 1029.6 |
| 20260831220347 | 15 | 161 | 1.6 | 4.8 | 0.00 | 0.00 | 0.00 | 92 | 1029.6 |
| 20260831215341 | 15 | 161 | 1.6 | 4.8 | 0.00 | 0.00 | 0.00 | 92 | 1029.5 |
| 20260831214818 | 15 | 246 | 0.0 | 3.2 | 0.00 | 0.00 | 0.00 | 92 | 1029.5 |
| 20260831214253 | 15 | 246 | 0.0 | 3.2 | 0.00 | 0.00 | 0.00 | 92 | 1029.4 |
| 20260831213727 | 15 | 246 | 0.0 | 1.6 | 0.00 | 0.00 | 0.00 | 92 | 1029.5 |
| 20260831213157 | 14 | 246 | 0.0 | 0.0 | 0.00 | 0.00 | 0.00 | 92 | 1029.3 |
| 20260831212628 | 14 | 246 | 0.0 | 1.6 | 0.00 | 0.00 | 0.00 | 92 | 1029.3 |
| 20260831212106 | 14 | 246 | 0.0 | 1.6 | 0.00 | 0.00 | 0.00 | 92 | 1029.2 |